Weather History for KRTN - November, 2012

Change the Weather History Date:

Wednesday, November 7, 2012

  Actual Average (KTAD) Record (KTAD)
Temperature  
Mean Temperature 50 °F 44 °F  
Max Temperature 73 °F 60 °F - ()
Min Temperature 28 °F 29 °F - ()
Degree Days  
Heating Degree Days 14 20  
Month to date heating degree days 134  
Since 1 July heating degree days 635  
Cooling Degree Days 0 0  
Month to date cooling degree days 0  
Year to date cooling degree days 719  
Moisture  
Dew Point 18 °F    
Average Humidity 34    
Maximum Humidity 69    
Minimum Humidity 10    
Precipitation  
Precipitation 0.00 in 0.02 in - ()
Month to date precipitation 0.20  
Year to date precipitation 12.80  
Sea Level Pressure  
Sea Level Pressure 29.99 in    
Wind  
Wind Speed 7 mph (NE)    
Max Wind Speed 13 mph    
Max Gust Speed -    
Visibility 10 miles    
Events      
T = Trace of Precipitation, MM = Missing Value Source: NWS Daily Summary

Daily Weather History Graph

Daily Weather History Graph

Search for Another Location

Airport or City:

Trip Planner

Search our weather history database for the weather conditions in past years. The results will help you decide how hot, cold, wet, or windy it might be!

Date:

Astronomy

Nov. 07, 2012 Rise Set
Actual Time 6:28 AM MST 4:54 PM MST
Civil Twilight 6:01 AM MST 5:21 PM MST
Nautical Twilight 5:30 AM MST 5:52 PM MST
Astronomical Twilight 4:59 AM MST 6:23 PM MST
Moon No Moon Rise 12:55 PM MST (11/7)
Length of Visible Light 11h 20m
Length of Day
10h 26m
Last Quarter, 42% of the Moon is Illuminated
Nov 7
Last Quarter
Nov 13
New
Nov 20
First Quarter
Nov 28
Full
Dec 6
Last Quarter

Hourly Weather History & Observations

Time (MST) Temp. Windchill Dew Point Humidity Pressure Visibility Wind Dir Wind Speed Gust Speed Precip Events Conditions
12:53 AM 39.0 °F 34.0 °F 23.0 °F 53% 30.14 in 10.0 mi North 6.9 mph - N/A   Clear
1:53 AM 35.1 °F 29.3 °F 21.9 °F 59% 30.14 in 10.0 mi North 6.9 mph - N/A   Clear
2:53 AM 33.1 °F 26.9 °F 19.9 °F 59% 30.12 in 10.0 mi NE 6.9 mph - N/A   Clear
3:53 AM 32.0 °F 24.8 °F 19.9 °F 61% 30.11 in 10.0 mi ENE 8.1 mph - N/A   Clear
4:53 AM 33.1 °F 26.9 °F 21.0 °F 61% 30.12 in 10.0 mi NE 6.9 mph - N/A   Clear
5:53 AM 28.9 °F 22.8 °F 19.9 °F 69% 30.14 in 10.0 mi NE 5.8 mph - N/A   Clear
6:53 AM 30.0 °F 24.1 °F 21.0 °F 69% 30.17 in 10.0 mi ENE 5.8 mph - N/A   Clear
7:53 AM 39.0 °F 36.8 °F 23.0 °F 53% 30.14 in 10.0 mi ENE 3.5 mph - N/A   Clear
8:53 AM 48.0 °F - 26.1 °F 42% 30.10 in 10.0 mi ENE 5.8 mph - N/A   Clear
9:53 AM 55.9 °F - 26.1 °F 32% 30.04 in 10.0 mi ENE 4.6 mph - N/A   Clear
10:53 AM 62.1 °F - 23.0 °F 22% 30.01 in 10.0 mi Variable 4.6 mph - N/A   Clear
11:53 AM 66.0 °F - 23.0 °F 20% 29.94 in 10.0 mi SSW 6.9 mph - N/A   Clear
12:53 PM 69.1 °F - 21.0 °F 16% 29.90 in 10.0 mi SSW 9.2 mph - N/A   Clear
1:53 PM 73.9 °F - 15.1 °F 11% 29.86 in 10.0 mi SSW 10.4 mph - N/A   Clear
2:53 PM 73.9 °F - 14.0 °F 10% 29.86 in 10.0 mi South 11.5 mph - N/A   Clear
3:53 PM 73.0 °F - 12.9 °F 10% 29.86 in 10.0 mi SSW 10.4 mph - N/A   Clear
4:53 PM 64.0 °F - 15.1 °F 15% 29.88 in 10.0 mi South 11.5 mph - N/A   Clear
5:53 PM 60.1 °F - 9.0 °F 13% 29.93 in 10.0 mi West 9.2 mph - N/A   Clear
6:53 PM 57.0 °F - 10.9 °F 16% 29.94 in 10.0 mi West 12.7 mph - N/A   Clear
7:53 PM 59.0 °F - 12.0 °F 16% 29.91 in 10.0 mi West 8.1 mph - N/A   Clear
8:53 PM 57.9 °F - 12.0 °F 16% 29.89 in 10.0 mi Variable 5.8 mph - N/A   Clear
9:53 PM 46.0 °F 44.8 °F 10.9 °F 24% 29.90 in 10.0 mi ENE 3.5 mph - N/A   Clear
10:53 PM 43.0 °F 38.8 °F 12.0 °F 28% 29.88 in 10.0 mi North 6.9 mph - N/A   Clear
11:53 PM 37.9 °F 32.7 °F 10.9 °F 33% 29.88 in 10.0 mi North 6.9 mph - N/A   Clear